Regional Weather Roundup
Issued by NWS

Home | Current Version | Previous Version | Graphics & Text | Print | Product List | Glossary On
Versions: 1 2 3 4 5 6 7 8 9 10 11 12 13 14 15 16 17 18 19 20 21 22 23 24 25 26 27 28 29 30 31 32 33 34 35 36 37 38 39 40 41 42 43 44 45 46 47 48 49 50
000
ASUS45 KBOU 212010
RWRCO

WEATHER ROUNDUP FOR COLORADO
NATIONAL WEATHER SERVICE PUEBLO CO
200 PM MDT SAT APR 21 2018

NOTE: "FAIR" INDICATES FEW OR NO CLOUDS BELOW 12000 FEET WITH NO
SIGNIFICANT WEATHER AND/OR OBSTRUCTIONS TO VISIBILITY.

COZ001>005-013-030-031-212100-
...NORTHWEST COLORADO...

CITY           SKY/WX    TMP DP  RH WIND       PRES   REMARKS
CRAIG          CLOUDY    47  35  63 VRB3      30.19S
HAYDEN         CLOUDY    43  33  68 W5        30.21S
MEEKER         CLOUDY    46  34  62 E5        30.21S
RABBIT EARS PA NOT AVBL
STEAMBOAT SPGS CLOUDY    37  33  85 CALM      30.20S
WALDEN         CLOUDY    37  30  75 N14       30.19R
$$

COZ006>008-011-212100-
...WEST CENTRAL VALLEYS...

CITY           SKY/WX    TMP DP  RH WIND       PRES   REMARKS
GRAND JUNCTION PTSUNNY   59  36  42 VRB6      30.16F
MONTROSE       PTSUNNY   51  35  54 VRB3      30.21F
EAGLE          CLOUDY    43  33  68 CALM      30.22F
RIFLE          CLOUDY    47  39  74 E6        30.20S
DELTA          NOT AVBL
NUCLA          FAIR      59  30  33 N14G23    30.21S
$$

COZ017>023-064>068-212100-
...SOUTHWEST COLORADO...

CITY           SKY/WX    TMP DP  RH WIND       PRES   REMARKS
DURANGO        SUNNY     57  26  30 VRB5      30.08F
CORTEZ         SUNNY     62  28  27 N20G33    30.12F
PAGOSA SPRINGS FAIR      57  21  25 NW7       30.10S
TELLURIDE      PTSUNNY   42  29  61 SW3       30.24S
WOLF CREEK PAS PTSUNNY   32  19  59 NW7       30.29R WCI  26
$$

COZ009-010-012-014-032>034-037-058>063-212100-
...CENTRAL COLORADO...

CITY           SKY/WX    TMP DP  RH WIND       PRES   REMARKS
ASPEN          CLOUDY    37  31  78 N3        30.22R
BUENA VISTA    PTSUNNY   47  27  46 NW24G31   30.11S
COPPER MTN     NOT AVBL
BERTHOUD PASS  CLOUDY    19   9  63 NW29G40   30.17S WCI   1
COTTONWOOD PAS CLOUDY    43  32  65 NW5       30.15S
GUNNISON       CLOUDY    44  29  55 W12G17    30.17S
KREMMLING      CLOUDY    45  34  65 N3        30.19R
LEADVILLE      FLURRIES  30  25  81 N10       30.17R WCI  21
MONARCH PASS   CLOUDY    23  23 100 W26G33    30.30S WCI   6
SALIDA         CLOUDY    50  31  48 N6        30.17S
SUNLIGHT       FOG      N/A N/A N/A CALM      30.29S VSB<1/4
WILKERSON PASS LGT SNOW N/A N/A N/A CALM      30.19S
$$

COZ069>075-212100-
...SAN LUIS VALLEY/SANGRE DE CRISTO MOUNTAINS...

CITY           SKY/WX    TMP DP  RH WIND       PRES   REMARKS
ALAMOSA        PTSUNNY   52  23  32 N10G18    30.09F
DEL NORTE      CLOUDY    50  21  31 NW13G20   30.12R
LA VETA PASS   SNOW      30  28  93 N8G17     30.27R VSB 1/4 WCI  23
SAGUACHE       NOT AVBL
$$

COZ035-036-038>040-212100-
...NORTHERN COLORADO FRONT RANGE...

CITY           SKY/WX    TMP DP  RH WIND       PRES   REMARKS
DENVER INTL AP CLOUDY    37  32  82 CALM      30.18S
DMNS CITY PARK NOT AVBL
AURORA         CLOUDY    36  36  99 NW3       30.19S
FRONT RANGE AP CLOUDY    37  36  93 NW5       30.20R
ERIE MUNI ARPT DRIZZLE   38  34  86 CALM      30.25S
BOULDER MUN AP DRIZZLE   37  36  93 SE3       30.18S
CENTENNIAL     LGT SNOW  35  33  92 NW5       30.18S FOG     WCI  31
BROOMFIELD     CLOUDY    37  36  93 CALM      30.19
LOVELAND       CLOUDY    44  36  73 E6        30.18F
LONGMONT       CLOUDY    41  36  83 S3        30.21S
$$

COZ041-046-047-076>085-087-088-212100-
...PIKES PEAK/PALMER DIVIDE AND SOUTHERN FOOTHILLS...

CITY           SKY/WX    TMP DP  RH WIND       PRES   REMARKS
COLO. SPRINGS  CLOUDY    39  32  76 N8        30.16F
A. F. ACADEMY  CLOUDY    38  32  76 N15       30.15S
SCHRIEVER AFB  NOT AVBL
CHEYENNE MTN   NOT AVBL
ELLICOTT       MIX PCPN N/A N/A N/A N14       30.15F
FALCON         CLOUDY    37  30  75 N13       30.16F
FORT CARSON    LGT RAIN  37  34  87 NE6       30.16S
LIMON          CLOUDY    38  36  92 N9        30.16F
MONUMENT HILL  LGT SNOW  32  30  93 NW8       30.18S WCI  25
CANON CITY     PTSUNNY   46  36  66 NE12      30.14S
WALSENBURG     CLOUDY    43  37  81 NE20G25   30.15R
TRINIDAD       CLOUDY    49  33  54 NE15G23   30.13R
$$

COZ042>045-048>051-090-091-212100-
...NORTHEAST COLORADO...

CITY           SKY/WX    TMP DP  RH WIND       PRES   REMARKS
GREELEY ARPT   CLOUDY    43  36  76 E7        30.19F
AKRON          LGT RAIN  37  34  89 CALM      30.18F
BURLINGTON     CLOUDY    41  37  86 NE8       30.17F
WRAY           CLOUDY    41  36  81 MISG      30.20S
YUMA           NOT AVBL
STERLING       NOT AVBL
HOLYOKE        CLOUDY    43  37  81 E3        30.21S
FORT MORGAN    DRIZZLE   40  34  81 CALM      30.20S
$$

COZ086-089-092>099-212100-
...SOUTHEAST COLORADO...

CITY           SKY/WX    TMP DP  RH WIND       PRES   REMARKS
PUEBLO         LGT RAIN  46  37  71 NE15      30.17R
LA JUNTA       CLOUDY    49  38  65 N13       30.15R
LAMAR          CLOUDY    47  38  71 NE14      30.14R
SPRINGFIELD      N/A     47  38  71 N16       30.11S
$$





USA.gov is the U.S. government's official web portal to all federal, state and local government web resources and services.